Helicity
133 130 128 136 145 138 131 127 126 112 94 82 87 89 76 84 87 -5 30 17 31 55 135 101 135 123 152 146 143 156 183 169 108 43 70 72 137 89 -1 3 50 65 44 34 -8
108 101 96 99 109 117 109 95 86 86 84 73 69 64 69 77 15 38 36 67 102 131 136 146 147 153 177 159 176 182 202 164 112 122 56 92 101 103 34 39 26 68 14 -56 62
95 96 95 87 71 59 60 66 59 43 32 32 42 50 60 50 -19 -84 2 248 314 234 120 209 293 224 215 225 237 211 199 180 128 124 97 80 91 53 96 101 132 41 -7 -68 38
77 74 71 61 48 33 22 7 -4 -2 5 12 24 32 41 -2 63 -50 43 67 116 176 84 148 236 336 282 263 338 280 189 172 151 153 141 111 91 94 82 99 113 50 5 -52 -24
56 40 25 20 14 9 -0 -16 -23 -21 -26 -20 -9 8 -0 77 67 143 186 126 59 64 117 136 233 274 289 281 294 251 257 237 188 168 141 107 88 92 67 74 71 81 35 9 5
40 44 43 42 45 30 5 -8 2 -16 -28 -28 -24 22 23 60 11 18 58 78 54 84 171 123 223 260 308 276 220 330 198 182 213 177 164 149 109 135 123 106 85 61 54 37 56
40 48 45 43 47 39 12 8 29 -6 -28 -17 -1 23 60 30 87 120 186 174 190 117 114 148 168 263 326 279 242 266 221 264 256 244 202 140 89 107 138 108 102 98 75 76 75
33 35 26 19 11 8 10 -6 -4 -41 -8 20 -6 15 -158 31 59 59 54 208 194 199 112 137 120 214 227 370 311 223 221 192 212 226 256 223 37 104 118 114 94 96 121 110 99
28 27 19 16 8 13 23 -9 -46 -24 87 41 38 -20 -207 -43 19 57 70 145 266 194 190 177 179 197 261 308 365 326 230 264 283 268 282 279 42 218 215 133 128 131 89 73 72
33 35 32 21 12 20 28 -11 -13 57 48 19 -19 -64 -110 -29 14 24 56 14 87 230 311 286 362 353 365 442 378 429 422 319 223 153 167 222 133 183 139 107 92 73 70 61 32
19 23 28 18 15 26 35 30 9 12 57 -53 -73 -23 -24 83 100 -6 93 136 99 161 321 331 463 421 324 336 342 400 342 313 336 303 296 172 125 127 148 125 113 87 81 60 67
6 2 1 4 6 4 56 51 51 46 -14 -17 19 51 40 64 81 19 33 134 172 206 351 425 364 275 242 188 234 289 295 253 261 275 185 139 147 127 114 109 86 67 49 55 68
-0 -1 -13 -4 -10 81 75 65 97 78 111 62 57 27 29 74 62 -18 23 198 153 123 227 295 364 135 163 218 237 219 226 173 173 228 210 139 40 10 13 58 58 58 57 60 76
9 -6 -0 -0 58 64 71 75 57 87 160 91 49 68 52 47 17 61 30 61 151 92 103 161 133 131 137 179 175 234 165 176 180 118 72 149 -54 -16 -9 -0 34 46 52 45 96
34 -1 11 30 52 72 79 52 61 87 113 66 61 60 67 68 49 37 31 89 64 37 81 62 96 116 112 141 74 111 44 122 119 138 96 105 136 -108 -70 30 28 51 50 68 62
35 -0 -3 87 77 87 71 62 91 194 181 104 61 73 84 42 68 20 48 65 44 63 76 49 43 12 68 134 34 88 58 110 128 116 125 51 164 -137 -37 -15 80 33 72 44 57
55 -6 45 82 82 88 80 97 181 249 107 96 79 91 44 55 38 39 40 8 20 78 128 92 50 42 13 146 143 119 208 267 273 245 155 18 133 131 13 68 64 127 109 94 100
58 39 78 55 53 59 94 125 236 166 108 74 75 47 49 61 47 47 29 7 -12 9 48 77 84 80 69 72 121 179 186 341 349 289 133 170 56 23 -41 -68 -64 -77 -16 95 170
33 78 75 40 57 75 120 176 165 133 104 76 48 74 57 60 69 11 34 -2 13 37 11 -6 29 82 145 117 90 139 196 39 294 248 156 120 27 -1 41 -17 100 83 56 97 92
70 102 77 27 51 70 106 116 124 109 86 66 111 111 115 53 38 46 18 1 13 -0 40 23 37 15 28 81 94 126 123 191 240 250 192 77 -36 -49 5 106 47 87 64 72 80
79 130 78 55 68 72 96 95 92 86 82 98 115 108 87 66 49 54 18 17 30 -7 3 16 29 33 70 46 49 68 171 173 89 169 198 82 26 -101 58 72 152 117 138 75 66
68 106 73 52 83 86 95 96 86 66 73 79 100 91 99 78 49 69 82 42 22 18 32 25 15 16 -1 57 75 110 70 111 116 119 71 -3 273 32 114 121 135 211 304 62 34
78 71 69 57 145 89 83 95 120 121 94 85 78 78 97 102 77 62 44 29 17 29 32 29 17 31 33 60 86 78 51 51 45 -20 -59 -14 34 90 84 51 179 273 308 68 41
78 63 68 106 129 136 103 87 105 100 76 74 76 70 89 64 65 87 66 39 51 56 41 71 49 26 29 31 24 60 131 137 39 -28 -106 -75 -109 -186 -12 -60 214 396 317 89 44
85 100 105 131 123 94 116 116 83 101 98 75 77 42 -1 18 6 80 54 23 53 74 45 72 14 16 11 31 13 38 73 107 52 -18 -106 -132 -148 -208 -223 -103 223 425 343 110 39
93 99 130 139 98 99 89 112 82 87 116 73 125 66 36 39 80 95 53 72 55 -1 66 65 20 41 -6 27 15 24 13 4 8 -9 -87 -124 -151 -125 -147 -144 181 273 429 189 42
91 111 139 101 134 121 103 106 79 36 76 96 104 115 75 67 46 123 128 127 111 122 39 -5 -31 85 23 30 27 -2 12 -8 -54 -67 -80 -105 -151 -180 -175 -16 129 212 337 250 79
Wind_Speed
59 61 62 64 65 66 67 68 68 68 69 70 70 72 74 77 83 71 84 66 63 64 64 67 55 47 46 52 48 43 61 66 61 48 46 38 46 40 39 44 42 37 31 36 42
58 59 60 62 64 66 67 68 69 69 70 71 72 73 75 79 77 81 65 60 65 73 73 72 73 59 61 61 58 61 69 71 61 57 51 51 53 59 59 63 49 52 50 44 42
59 60 61 63 64 66 67 69 70 71 72 72 72 73 73 75 70 50 31 51 57 61 66 67 68 66 76 64 66 70 86 71 76 65 62 66 74 64 79 79 66 71 78 60 55
61 62 64 66 67 68 68 69 70 71 72 72 71 70 70 59 65 42 50 64 63 59 56 62 67 75 82 83 74 86 83 75 77 66 67 78 77 89 93 88 82 88 81 76 85
63 64 65 66 68 69 70 70 71 72 72 71 68 64 57 62 63 61 65 66 58 56 60 62 71 74 91 87 84 92 88 79 83 81 80 82 96 94 107 89 89 90 88 87 78
61 61 64 66 68 70 71 72 74 75 73 68 61 53 57 80 51 65 69 73 67 66 61 55 65 71 80 89 89 84 93 96 88 88 82 89 106 92 95 79 88 87 89 83 81
62 64 67 70 72 73 74 74 77 77 71 58 50 49 61 72 59 71 69 64 63 68 70 58 55 67 70 88 84 96 107 91 87 83 92 84 121 121 91 80 88 87 89 91 86
67 69 71 73 75 75 76 77 77 72 62 54 49 51 67 56 62 66 60 63 57 62 65 65 59 66 71 68 76 83 93 118 101 83 77 65 145 102 81 77 89 94 88 83 88
70 72 74 76 76 76 77 77 71 63 52 48 54 56 68 66 70 72 61 69 75 66 55 57 53 66 63 78 85 86 112 105 100 80 76 78 146 95 86 84 91 94 99 98 96
74 75 77 78 77 76 76 72 68 49 50 49 49 61 65 84 80 74 66 65 63 73 61 57 62 71 74 79 108 96 97 92 93 76 78 95 131 100 96 100 103 99 99 96 93
75 76 77 78 76 74 67 61 67 57 62 58 62 65 77 73 76 69 66 55 57 60 70 64 81 96 86 82 83 71 77 83 74 68 72 90 106 101 88 93 94 94 90 92 99
76 77 78 77 73 61 54 58 56 56 67 62 55 57 63 65 81 72 56 57 58 75 67 73 98 84 71 73 88 91 86 86 80 80 80 89 104 101 92 96 94 94 92 86 85
77 77 76 73 66 45 54 49 51 54 58 55 55 59 68 64 69 67 56 50 57 72 73 76 75 74 76 78 79 80 89 87 87 80 87 92 117 105 101 93 90 88 89 87 73
69 67 62 65 44 50 45 47 59 41 61 63 61 54 67 64 50 47 45 40 47 63 65 69 68 70 68 87 87 97 65 70 73 75 100 71 126 110 102 101 91 83 68 61 80
27 53 51 44 42 49 47 54 48 40 72 66 61 48 71 53 62 50 52 36 43 53 56 70 66 69 80 79 68 89 70 77 78 84 88 89 92 114 63 85 77 71 88 87 92
33 41 41 35 37 38 48 50 38 54 60 60 59 62 66 51 61 54 52 46 30 38 54 71 62 60 64 63 64 64 66 70 69 74 103 88 72 121 78 79 72 84 78 78 70
32 32 30 33 43 45 51 44 50 56 54 56 59 58 52 52 51 56 64 52 47 39 49 57 76 70 65 73 68 64 62 72 81 84 93 58 64 72 40 46 49 53 59 53 54
28 43 33 31 34 46 50 46 55 47 49 46 47 47 43 59 50 55 60 48 43 36 38 48 52 60 54 60 59 62 65 65 82 84 80 71 74 70 77 70 60 56 64 64 67
47 39 38 40 40 43 51 56 46 45 44 48 47 42 44 49 38 51 47 46 44 43 41 37 39 39 39 44 46 57 73 66 59 60 73 71 82 79 73 62 63 64 62 65 65
47 38 42 38 40 47 50 45 43 37 40 41 44 36 42 51 42 46 34 40 44 42 40 39 42 33 31 40 52 52 51 68 62 72 79 75 82 83 55 60 46 51 59 61 51
47 41 43 39 39 48 50 42 40 36 40 40 34 31 32 34 34 36 24 51 38 48 44 43 37 44 44 49 55 56 65 62 65 68 69 73 67 58 58 43 47 52 58 53 30
51 47 45 41 47 47 48 44 37 34 40 34 27 25 29 33 34 30 17 33 46 47 50 41 43 47 52 55 50 53 62 69 77 83 85 77 68 48 50 43 47 55 52 38 14
56 43 41 42 50 52 44 43 35 37 41 40 31 23 31 27 25 22 22 45 49 45 42 40 45 51 47 38 42 61 65 68 71 72 93 95 86 52 46 47 49 55 48 32 19
54 54 47 48 44 49 50 45 42 33 32 34 24 20 21 16 8 11 5 44 43 43 39 36 49 54 58 54 50 66 72 71 76 94 95 106 94 86 67 56 55 54 42 28 14
56 50 48 51 49 44 40 40 40 45 33 34 26 8 13 15 22 25 24 13 22 46 49 33 57 59 60 61 66 74 82 86 97 93 96 90 98 86 69 65 61 52 38 26 16
56 53 48 43 41 42 40 40 38 40 40 37 15 26 28 26 23 32 28 22 16 14 7 28 29 48 63 62 66 78 86 93 101 103 104 99 101 81 67 59 58 49 39 28 24
46 43 45 45 47 46 42 40 37 36 33 27 17 40 33 25 21 35 38 39 23 12 21 24 25 39 59 52 60 77 83 96 101 102 96 108 89 77 74 68 61 52 45 36 26
Wind_Direction
320 318 316 315 315 316 316 316 316 314 312 309 308 306 304 300 296 296 280 283 280 281 282 273 272 271 270 265 265 267 261 258 259 263 266 277 273 269 283 293 306 314 319 319 325
322 320 318 316 315 314 313 313 312 312 312 312 312 310 307 304 301 291 292 288 283 278 272 266 262 264 263 261 261 257 258 258 262 263 270 270 277 277 279 283 294 296 302 310 309
328 325 322 321 319 317 316 314 312 311 311 311 312 312 312 311 303 299 309 305 296 289 275 267 266 260 258 259 256 257 258 261 262 266 270 270 271 277 277 275 284 283 292 300 299
327 325 323 322 320 318 315 314 314 314 314 315 316 315 314 318 296 311 303 301 301 294 282 268 260 258 256 254 256 260 261 261 264 267 271 270 274 271 272 276 283 284 289 293 291
328 327 327 324 322 320 318 316 316 316 317 319 321 323 326 313 303 309 301 300 299 299 281 269 257 256 256 258 257 259 262 264 264 267 269 273 269 272 271 277 281 283 285 287 292
324 322 320 319 318 317 316 315 317 320 321 324 327 330 324 305 319 312 305 297 293 289 282 276 266 259 265 260 255 262 263 264 266 266 270 270 270 274 272 282 283 285 285 287 288
322 321 322 323 322 321 321 319 319 327 330 339 341 336 321 309 320 314 309 300 297 286 276 273 272 262 265 263 266 261 262 266 265 268 267 270 269 265 276 280 281 282 284 285 285
325 324 324 326 326 326 325 323 327 335 341 346 348 338 323 330 322 313 316 306 306 298 277 270 271 268 260 268 266 263 260 259 262 263 268 267 258 273 277 276 278 280 283 284 283
328 328 328 330 332 333 331 330 335 342 350 354 345 338 327 331 322 313 309 302 300 300 285 269 266 262 259 257 262 259 257 260 264 262 264 257 252 272 279 281 280 280 280 280 283
331 331 331 333 335 336 334 341 344 359 356 354 349 335 334 328 325 319 309 297 297 295 281 263 261 257 254 249 252 258 258 261 263 265 260 262 264 275 278 277 277 279 281 282 282
336 335 333 332 334 336 349 355 354 353 349 346 339 334 329 333 331 329 316 299 297 292 272 264 254 249 252 253 256 265 263 262 266 267 270 265 268 272 277 277 278 279 282 283 282
337 337 337 338 342 349 3 358 360 353 343 343 344 339 336 336 328 328 333 296 287 279 279 263 253 257 261 258 256 257 262 263 268 268 270 270 271 273 276 276 278 279 281 284 286
343 341 343 345 350 11 3 5 3 358 347 347 349 347 347 344 330 333 336 312 287 274 271 264 263 257 255 256 255 256 257 260 264 271 271 275 271 273 273 277 278 279 280 281 285
358 357 0 357 17 7 8 6 356 8 348 349 353 355 350 346 343 350 357 339 296 279 271 266 262 262 258 253 254 253 259 263 266 267 264 275 269 271 273 274 277 280 282 276 281
356 5 5 13 14 12 9 1 6 14 345 354 357 3 347 354 338 341 345 354 316 278 280 264 261 261 257 257 257 256 257 259 263 265 269 266 274 266 281 277 282 284 273 275 272
1 7 10 25 22 16 7 6 22 358 350 357 1 359 355 358 341 323 339 343 343 305 281 268 266 266 261 262 257 257 254 255 260 260 258 262 267 260 276 279 280 269 274 272 277
360 16 38 33 18 15 10 17 3 359 1 1 2 1 2 3 355 331 323 323 342 305 291 281 260 258 262 261 257 250 246 245 248 249 253 262 258 239 279 291 270 280 276 282 285
6 31 42 34 25 15 16 14 2 5 3 4 4 3 8 2 357 340 313 319 309 341 330 285 270 255 258 254 249 245 240 244 246 246 252 253 258 264 248 245 263 276 279 277 269
24 37 36 29 27 24 17 10 11 9 8 4 4 12 9 6 11 350 339 298 312 319 313 326 290 276 268 256 251 245 239 244 258 255 250 251 255 260 239 249 263 274 279 269 251
28 36 32 31 32 24 20 16 14 15 10 9 7 12 5 1 9 8 357 311 310 322 325 309 288 291 278 267 256 251 248 239 246 245 246 249 249 244 250 253 275 283 285 270 268
31 34 32 33 32 24 20 17 14 18 14 11 2 358 360 5 10 12 22 302 316 313 308 300 306 288 281 260 252 248 244 244 247 247 244 243 245 250 242 261 279 288 291 270 281
27 26 31 34 25 24 19 16 14 16 17 15 17 10 10 13 6 7 32 329 313 316 299 302 297 289 278 268 266 255 247 244 242 240 242 243 239 249 259 273 288 292 291 281 284
22 27 31 31 20 18 17 15 19 16 15 20 19 26 16 16 13 14 11 324 302 312 306 313 290 285 284 284 268 251 249 247 245 245 237 234 230 246 260 279 288 298 289 280 279
22 20 25 29 27 19 15 19 16 21 18 24 25 37 30 6 24 25 276 329 318 312 318 317 288 280 273 277 271 255 249 247 242 237 237 233 236 239 251 270 283 298 288 278 264
21 22 24 15 19 14 17 17 17 18 29 22 34 77 256 266 270 247 240 233 327 317 304 306 280 280 279 279 271 258 249 244 237 238 236 236 233 245 252 264 273 288 289 274 245
17 18 19 14 16 18 20 19 16 18 17 15 33 259 268 265 261 267 257 248 236 184 357 303 302 292 275 281 272 259 250 244 239 235 236 239 235 246 255 261 266 280 275 268 246
23 23 20 19 16 17 21 19 13 8 23 21 270 271 270 268 267 264 258 251 235 200 181 170 179 296 278 289 283 259 249 244 240 234 236 230 233 244 249 252 258 272 263 263 247